DW0564 Weather Reports


Display with metric or nautical units.
time (UTC)temp
F
wind
direction
speed
MPH
gust
MPH
rain 1hr
in
rain 24hr
in
rain mn
in
humidity
%
barometer
mb
20190319224624 42 277 3.0 8.0 0.00 0.00 0.00 47 1027.8
20190319223136 43 294 2.0 9.0 0.00 0.00 0.00 46 1027.7
20190319221635 43 274 6.0 11.0 0.00 0.00 0.00 46 1027.5
20190319220121 43 204 2.0 9.0 0.00 0.00 0.00 46 1027.5
20190319214610 43 202 6.0 9.0 0.00 0.00 0.00 47 1027.5
20190319213142 43 245 3.0 7.0 0.00 0.00 0.00 47 1027.4
20190319211656 43 236 2.0 9.0 0.00 0.00 0.00 47 1027.2
20190319210059 43 239 2.0 9.0 0.00 0.00 0.00 47 1027.2
20190319204611 43 185 3.0 10.0 0.00 0.00 0.00 48 1027.2
20190319201652 44 190 5.0 15.0 0.00 0.00 0.00 47 1027.2
20190319200123 44 203 6.0 13.0 0.00 0.00 0.00 45 1027.1
20190319194604 45 298 4.0 13.0 0.00 0.00 0.00 38 1027.1
20190319193118 46 346 7.0 14.0 0.00 0.00 0.00 37 1027.2
20190319191628 46 296 7.0 14.0 0.00 0.00 0.00 37 1027.2
20190319190204 45 273 3.0 16.0 0.00 0.00 0.00 38 1027.2
20190319184544 43 290 4.0 11.0 0.00 0.00 0.00 38 1027.3
20190319183105 44 331 5.0 16.0 0.00 0.00 0.00 37 1027.5
20190319181638 44 293 6.0 12.0 0.00 0.00 0.00 38 1027.6
20190319180157 44 255 5.0 12.0 0.00 0.00 0.00 39 1027.8
20190319174541 44 293 8.0 16.0 0.00 0.00 0.00 37 1028.2
20190319173135 44 268 5.0 16.0 0.00 0.00 0.00 38 1028.2
20190319171547 43 5 4.0 12.0 0.00 0.00 0.00 41 1028.4
20190319170123 42 340 5.0 10.0 0.00 0.00 0.00 43 1028.7
20190319164714 43 342 9.0 15.0 0.00 0.00 0.00 42 1028.8
20190319163104 42 51 5.0 15.0 0.00 0.00 0.00 41 1028.8
20190319161618 42 327 6.0 12.0 0.00 0.00 0.00 42 1028.7
20190319160134 42 298 5.0 12.0 0.00 0.00 0.00 43 1028.7
20190319154630 41 277 4.0 10.0 0.00 0.00 0.00 43 1028.6
20190319153056 41 284 2.0 12.0 0.00 0.00 0.00 44 1028.8
20190319150209 40 12 8.0 12.0 0.00 0.00 0.00 45 1029.0
20190319144559 39 259 6.0 11.0 0.00 0.00 0.00 46 1029.0
20190319143225 39 291 2.0 11.0 0.00 0.00 0.00 47 1029.2
20190319141551 38 221 3.0 14.0 0.00 0.00 0.00 48 1029.4
20190319140119 38 300 3.0 10.0 0.00 0.00 0.00 48 1029.5
20190319134613 37 275 3.0 11.0 0.00 0.00 0.00 50 1029.5
20190319133057 36 281 6.0 11.0 0.00 0.00 0.00 50 1029.5
20190319131620 36 343 3.0 8.0 0.00 0.00 0.00 54 1029.3
20190319130127 35 294 3.0 9.0 0.00 0.00 0.00 58 1029.3
20190319124542 34 319 4.0 8.0 0.00 0.00 0.00 61 1029.2
20190319123105 32 310 2.0 6.0 0.00 0.00 0.00 68 1029.0
20190319121547 29 273 2.0 4.0 0.00 0.00 0.00 77 1029.0
20190319120119 27 318 1.0 4.0 0.00 0.00 0.00 81 1028.8
20190319114553 26 286 0.0 2.0 0.00 0.00 0.00 82 1028.7
20190319113132 25 286 0.0 3.0 0.00 0.00 0.00 82 1028.5
20190319111602 24 286 1.0 3.0 0.00 0.00 0.00 83 1028.4
20190319110127 24 286 1.0 3.0 0.00 0.00 0.00 83 1028.2
20190319104616 24 285 1.0 3.0 0.00 0.00 0.00 83 1028.1
20190319103111 23 285 1.0 3.0 0.00 0.00 0.00 84 1028.0
20190319101533 23 285 1.0 3.0 0.00 0.00 0.00 84 1027.8
20190319094604 23 284 0.0 2.0 0.00 0.00 0.00 84 1027.6
20190319093146 23 284 0.0 2.0 0.00 0.00 0.00 83 1027.4
20190319091550 23 284 1.0 2.0 0.00 0.00 0.00 83 1027.3
20190319090126 23 284 1.0 2.0 0.00 0.00 0.00 83 1027.2
20190319084553 23 284 0.0 0.0 0.00 0.00 0.00 82 1027.2
20190319083123 24 284 0.0 0.0 0.00 0.00 0.00 82 1027.2
20190319081611 24 284 0.0 0.0 0.00 0.00 0.00 82 1027.1
20190319080202 24 284 0.0 0.0 0.00 0.00 0.00 82 1026.9
20190319074537 24 284 0.0 0.0 0.00 0.00 0.00 82 1026.8
20190319073110 24 284 0.0 0.0 0.00 0.00 0.00 82 1026.8
20190319071643 24 284 0.0 1.0 0.00 0.00 0.00 82 1027.0
20190319070212 24 284 1.0 3.0 0.00 0.00 0.00 82 1027.2
20190319064633 24 284 0.0 2.0 0.00 0.00 0.00 82 1027.2
20190319063110 24 284 1.0 2.0 0.00 0.00 0.00 82 1027.2
20190319061637 24 284 1.0 2.0 0.00 0.00 0.00 81 1027.3
20190319060045 24 284 1.0 2.0 0.00 0.00 0.00 81 1027.1
20190319054633 25 284 1.0 2.0 0.00 0.00 0.00 80 1027.0
20190319053104 25 284 1.0 2.0 0.00 0.00 0.00 80 1026.9
20190319051715 25 284 1.0 2.0 0.00 0.00 0.00 80 1026.6
20190319050059 25 284 1.0 3.0 0.00 0.00 0.00 79 1026.5
20190319043047 26 284 0.0 2.0 0.00 0.00 0.00 78 1026.4
20190319041653 27 284 0.0 2.0 0.00 0.00 0.00 77 1026.4
20190319040045 27 284 1.0 3.0 0.00 0.00 0.00 77 1026.4
20190319034615 27 284 1.0 3.0 0.00 0.00 0.00 77 1026.3
20190319033120 27 284 1.0 2.0 0.00 0.00 0.00 77 1026.4
20190319031818 28 284 0.0 2.0 0.00 0.00 0.00 76 1026.3
20190319030105 28 284 1.0 2.0 0.00 0.00 0.00 75 1026.3
20190319024611 28 284 0.0 2.0 0.00 0.00 0.00 74 1026.4
20190319023140 29 284 1.0 2.0 0.00 0.00 0.00 74 1026.3
20190319021621 29 284 1.0 3.0 0.00 0.00 0.00 72 1026.3
20190319020043 30 284 2.0 3.0 0.00 0.00 0.00 72 1026.3
20190319014650 30 284 1.0 3.0 0.00 0.00 0.00 72 1026.2
20190319013123 31 284 2.0 3.0 0.00 0.00 0.00 72 1026.1
20190319011553 31 252 1.0 3.0 0.00 0.00 0.00 71 1026.0
20190319010132 32 248 1.0 3.0 0.00 0.00 0.00 70 1025.8
20190319004609 33 248 1.0 3.0 0.00 0.00 0.00 68 1025.6
20190319003136 33 225 1.0 3.0 0.00 0.00 0.00 64 1025.4
20190319001551 35 225 1.0 3.0 0.00 0.00 0.00 62 1025.2
20190319000155 36 225 1.0 3.0 0.00 0.00 0.00 59 1025.0
20190318234622 37 225 0.0 3.0 0.00 0.00 0.00 56 1024.7
20190318231606 38 232 2.0 5.0 0.00 0.00 0.00 55 1024.3
20190318230109 39 219 1.0 5.0 0.00 0.00 0.00 55 1024.1